Location: Klein M�hlingen
(51.9472°N, 11.7453°E)
Time: 23:47:45
(UTC+00:00)

Nauka - Visible Passes

Search period start: 28 September 2021 00:00
Search period end: 08 October 2021 00:00
Orbit: 417 x 423 km, 51.6° (Epoch: 28 September)

Date Brightness Start Highest point End Pass type
(mag) Time Alt. Az. Time Alt. Az. Time Alt. Az.
28 Sep ? 17:29:17 10° W 17:32:39 87° S 17:36:02 10° E visible
28 Sep ? 19:06:06 10° W 19:09:10 48° SW 19:09:10 48° SW visible
29 Sep ? 18:18:46 10° W 18:22:07 62° SSW 18:23:38 29° SE visible
29 Sep ? 19:55:58 10° W 19:56:36 13° WSW 19:56:36 13° WSW visible
30 Sep ? 17:31:26 10° W 17:34:48 74° S 17:38:08 10° ESE visible
30 Sep ? 19:08:25 10° W 19:11:06 27° SW 19:11:06 27° SW visible
01 Oct ? 18:20:57 10° W 18:24:06 37° SSW 18:25:39 23° SSE visible
02 Oct ? 17:33:34 10° W 17:36:50 48° SSW 17:40:06 10° SE visible
02 Oct ? 19:11:15 10° WSW 19:13:04 14° SW 19:13:13 14° SW visible
03 Oct ? 18:23:24 10° W 18:25:55 20° SW 18:27:53 13° S visible
04 Oct ? 17:35:48 10° W 17:38:42 27° SSW 17:41:35 10° SSE visible
06 Oct ? 17:38:34 10° WSW 17:40:21 14° SW 17:42:08 10° S visible
